North Platte Regional Airport Lee Bird Field
KLBF : now visible

Airfield :











YOU CAN JOIN US ON...

 
LOGIN :

Register | Disclaimer

   EN    FR    IT 

 









Legend :    VFR   Marginal VFR   IFR   Intensive IFR   Very Intensive IFR
Visi :
Ceiling :
>= 8 km
>= 3000ft
5 to 8 km
1000 to 3000 ft
1500m to 5 km
500 to 1000 ft
800 to 1500m
200 to 500 ft
< 800m
< 200 ft
Symbols :   Thunderstorms  Fog  Heavy snow  Heavy precipitations  Wind > 20 kt






- Airport Elevation : 2777 ft
- IATA code : LBF


KLBF - North Platte Regional Lee Bird Field

CURRENT METAR :
  • 231753Z AUTO 15008KT 10SM CLR 34/18 A2976 RMK AO2 SLP044 T03440183 10344 20167 58008

EXPIRED METARs :
  • 231653Z AUTO 18005KT 10SM CLR 31/18 A2978 RMK AO2 SLP051 T03110183
  • 231553Z AUTO 18007KT 10SM CLR 28/17 A2978 RMK AO2 SLP053 T02830172

TAF KLBF
Valid from the 23 at 18:00 until the 24 at 18:00 UTC


231741Z 2318/2418 18011G18KT P6SM SCT130 SCT250
FM232300 15015G25KT P6SM BKN130 BKN200
TEMPO 2401/2405 3SM TSRA OVC040CB
FM240500 VRB06KT P6SM OVC200
FM241500 05006KT P6SM BKN250
KZDV FIR / North America



MET'MAP, your aeronautical weather chart ! - Copyright ORBIFLY December 2007 - Disclaimer

ORBIFLY MET'MAP TEAM :

Programming & Development : Alexandra Zaïnal
Concept & original design : Baudouin d'Aumeries
Assistance for programming : Marc-Olivier Méhu
Technical & hardware support : Manuel Goepfert

Contact : metmap@orbifly.com




SOURCES & CREDITS :

   NOAA       Earth
Advisory